GALAXY 30 (G-30)

Last updated on Tue Sep 22 2026 00:03:15 GMT+0000 (Coordinated Universal Time)

1 46114U 20056C 26264.54273757 .00000000 00000+0 00000+0 0 9997 2 46114 0.0243 157.5173 0002340 22.8949 250.3924 1.00270825 22250
UTC large
Height (km)
Speed (km/s)
/
Latitude / Longitude
Inclination (degrees)
Orbital Period (minutes)
Azimuth
Elevation
Range (km)
Doppler Factor

Next 0 passes for location: London (51.5072 / 0.1276)

No passes found over London.
GALAXY 30 (G-30)